Showing default

GLOBALSTAR M065, 31571

Orbit data source: Space-Track

GLOBALSTAR M065, 31571 is a payload satellite owned by Globalstar (US) in LEO that was launched on Tue, 29 May 2007 UTC via a SOYUZ-FG launch vehicle from the Tyuratam Missile And Space Complex (TTMTR). Payload-class satellites include a variety of spacecraft equipped with specific instruments for various scientific and technological missions. These include communications satellites like Starlink; space stations such as the ISS; scientific satellites like the Hubble; Earth observation satellites from companies like Planet Labs, Umbra, and HawkEye 360; GPS; miniature CubeSats for education and research; and military/defense satellites.

Loading next visibility...
Identifier
31571, 2007-020A
Orbit
LEO
Last TLE update
8 hours ago
Origin
Manufacturer
SS/Loral
Mission
Non-operational Commercial Communications
Bus & Motor
LS-400, LS-400 AOCS
Mass
450 kg wet, 380 kg dry
Launch date (UTC)
2007-05-29 (18 years ago)
Launch vehicle
SOYUZ-FG
Launch site
Tyuratam Missile And Space Complex (TTMTR)
Object type
Payload
Rocket body
Debris
Shape & HBR
Box + 2 Pan, 12 m
Radar Cross Section
5.587 m², Large (>1 m²)

Expand to show TLE details & history

TLE from 8 hours ago
0 GLOBALSTAR M065
1 31571U 07020A   25192.64343047 -.00000113  00000-0 -51616-4 0  9996
2 31571  51.9875 151.8299 0010359   3.6701 167.0925 12.62010178836492
Epoch: 2025-07-11T15:26Z
TLE epoch observation values (Epoch: 2025-07-11T15:26:32.392Z)
Latitude
7.21651°
Longitude
164.75062°
Altitude
1,422.564 km
Speed
7.147 km/s
True Right ascension
21h 44m 42s
True Declination
7° 10' 39"
Sunlit
Object was in full shadow at epoch
Visualization orbit readout
Latitude
-37.54634°
Longitude
-153.88823°
Altitude
1,432.352 km
Speed
7.143 km/s
Apparent Right ascension
00h 08m 45s
Apparent Declination
-38° 35' 50"
Sunlit
Object is in daylight
Visualization observer readout
Local Sidereal Time
11:41:38
Azimuth
281.945° WNW
Elevation
-84.591°
Doppler factor
1
Orbital elements
Apogee altitude
1,423.125 km
Perigee altitude
1,406.979 km
Semi-major axis
7,793.189 km
Eccentricity
0.00104
Inclination
51.9875°
RAAN
151.8299°
Arg. of periapsis
3.6701°
True anomaly
Unknown
Mean anomaly
167.0925°
Eccentric anomaly
Unknown
Mean motion
3.15479 °/min
Orbital period
114.11 mins
BSTAR
-0.000051616
Loading maneuver chart data...
Loading SW <> Apogee altitude chart data...
Loading historical data...
Loading historical data...
Loading historical data...
Loading historical data...
Loading historical data...
Loading historical data...
Loading historical data...

GLOBALSTAR M065 Visibility forecast

Observer location: undefined°, undefined°

Span
Click to sort rows by Start time (UTC) header in descending order
Start Az.
Max El. time (UTC)
Max El. Az.
Max El.
End time (UTC)
End Az.
16 mins2025-07-12 00:11:38.832Z227.457° WSW2025-07-12 00:19:38.832Z135.794° SSE44.937°2025-07-12 00:27:38.832Z53.133° ENE
14 mins2025-07-12 02:13:38.832Z277.639° WNW2025-07-12 02:20:38.832Z350.746° N34.595°2025-07-12 02:27:38.832Z51.396° ENE
14 mins2025-07-12 04:15:38.832Z308.578° NW2025-07-12 04:21:38.832Z5.432° NNE32.09°2025-07-12 04:29:38.832Z75.299° E
15 mins2025-07-12 06:15:38.832Z310.475° NW2025-07-12 06:22:38.832Z18.54° NNE43.331°2025-07-12 06:30:38.832Z116.21° SE
14 mins2025-07-12 08:15:38.832Z292.939° NW2025-07-12 08:22:38.832Z227.893° WSW32.047°2025-07-12 08:29:38.832Z169.606° S
15 mins2025-07-12 22:58:38.832Z199.888° SSW2025-07-12 23:05:38.832Z131.495° SE37.443°2025-07-12 23:13:38.832Z59.952° ENE
|